TimeEST,TemperatureF,Dew PointF,Humidity,Sea Level PressureIn,VisibilityMPH,Wind Direction,Wind SpeedMPH,Gust SpeedMPH,PrecipitationIn,Events,Conditions,WindDirDegrees,DateUTC
12:54 AM,48.9,43.0,80,30.19,10.0,NNE,8.1,-,N/A,,Overcast,20,2012-11-20 05:54:00
1:36 AM,48.2,42.8,82,30.18,10.0,NE,8.1,-,N/A,,Overcast,40,2012-11-20 06:36:00
1:54 AM,48.0,43.0,83,30.18,10.0,NNE,5.8,-,N/A,,Overcast,20,2012-11-20 06:54:00
2:54 AM,48.9,44.1,83,30.17,10.0,NNE,6.9,-,N/A,,Overcast,20,2012-11-20 07:54:00
3:54 AM,48.9,44.1,83,30.16,10.0,North,8.1,-,N/A,,Overcast,10,2012-11-20 08:54:00
4:32 AM,50.0,44.6,82,30.17,10.0,NNE,6.9,-,N/A,,Overcast,30,2012-11-20 09:32:00
4:54 AM,50.0,44.1,80,30.17,10.0,North,5.8,-,N/A,,Overcast,10,2012-11-20 09:54:00
5:54 AM,50.0,44.1,80,30.17,10.0,NE,8.1,-,N/A,,Overcast,50,2012-11-20 10:54:00
6:54 AM,46.9,42.1,83,30.18,10.0,NE,6.9,-,N/A,,Scattered Clouds,50,2012-11-20 11:54:00
7:06 AM,46.4,42.8,87,30.18,10.0,NE,5.8,-,N/A,,Mostly Cloudy,50,2012-11-20 12:06:00
7:54 AM,48.0,43.0,83,30.19,10.0,NE,11.5,-,N/A,,Overcast,40,2012-11-20 12:54:00
8:54 AM,48.0,41.0,77,30.19,10.0,NE,6.9,-,N/A,,Overcast,50,2012-11-20 13:54:00
9:27 AM,48.2,41.0,76,30.18,10.0,NNE,8.1,-,N/A,,Mostly Cloudy,20,2012-11-20 14:27:00
9:36 AM,50.0,41.0,71,30.18,10.0,Variable,6.9,-,N/A,,Scattered Clouds,0,2012-11-20 14:36:00
9:54 AM,50.0,39.9,68,30.17,10.0,NNE,8.1,-,N/A,,Clear,20,2012-11-20 14:54:00
10:54 AM,52.0,39.9,63,30.16,10.0,NNE,8.1,-,N/A,,Partly Cloudy,20,2012-11-20 15:54:00
11:54 AM,53.1,39.9,61,30.13,10.0,NNE,8.1,-,N/A,,Clear,30,2012-11-20 16:54:00
12:54 PM,54.0,39.9,59,30.12,10.0,North,5.8,-,N/A,,Clear,10,2012-11-20 17:54:00
1:54 PM,53.1,39.0,59,30.11,10.0,NNE,9.2,-,N/A,,Clear,20,2012-11-20 18:54:00
2:54 PM,53.1,39.0,59,30.10,10.0,NE,9.2,-,N/A,,Clear,40,2012-11-20 19:54:00
3:54 PM,52.0,37.0,57,30.11,10.0,North,4.6,-,N/A,,Clear,360,2012-11-20 20:54:00
4:54 PM,48.9,36.0,61,30.10,10.0,NNE,3.5,-,N/A,,Clear,20,2012-11-20 21:54:00
5:54 PM,48.0,36.0,63,30.11,10.0,Calm,Calm,-,N/A,,Clear,0,2012-11-20 22:54:00
6:54 PM,45.0,37.0,74,30.12,10.0,Calm,Calm,-,N/A,,Clear,0,2012-11-20 23:54:00
7:54 PM,43.0,36.0,76,30.13,10.0,Calm,Calm,-,N/A,,Clear,0,2012-11-21 00:54:00
8:54 PM,43.0,36.0,76,30.14,10.0,Calm,Calm,-,N/A,,Clear,0,2012-11-21 01:54:00
9:54 PM,42.1,37.0,82,30.13,10.0,Calm,Calm,-,N/A,,Clear,0,2012-11-21 02:54:00
10:54 PM,43.0,37.9,82,30.13,10.0,Calm,Calm,-,N/A,,Clear,0,2012-11-21 03:54:00
11:54 PM,41.0,37.0,86,30.12,10.0,Calm,Calm,-,N/A,,Clear,0,2012-11-21 04:54:00